Weather History for Sacramento / Mc Clellan, CA

Change the Weather History Date:

Monday, July 22, 2013

  Actual Average (KMHR) Record (KMHR)
Temperature  
Mean Temperature 78 °F -  
Max Temperature 91 °F 90 °F 111 °F (2006)
Min Temperature 66 °F 58 °F 48 °F (2008)
Cooling Degree Days 14    
Growing Degree Days 28 (Base 50)    
Moisture  
Dew Point 47 °F    
Average Humidity 38    
Maximum Humidity 64    
Minimum Humidity 12    
Precipitation  
Precipitation 0.00 in - - ()
Sea Level Pressure  
Sea Level Pressure 29.89 in    
Wind  
Wind Speed 10 mph (South)    
Max Wind Speed 22 mph    
Max Gust Speed 25 mph    
Visibility 10 miles    
Events      
Averages and records for this station are not official NWS values.
T = Trace of Precipitation, MM = Missing Value Source: NWS Daily Summary

Daily Weather History Graph

Daily Weather History Graph

Search for Another Location

Airport:

Trip Planner

Search our weather history database for the weather conditions in past years. The results will help you decide how hot, cold, wet, or windy it might be!

Date:

Astronomy

Jul. 22, 2013 Rise Set
Actual Time 5:58 AM PDT 8:24 PM PDT
Civil Twilight 5:28 AM PDT 8:55 PM PDT
Nautical Twilight 4:50 AM PDT 9:32 PM PDT
Astronomical Twilight 4:09 AM PDT 10:14 PM PDT
Moon 8:15 PM PDT (7/22) 6:00 AM PDT (7/22)
Length of Visible Light 15h 26m
Length of Day
14h 25m
Full, 100% of the Moon is Illuminated
Jul 22
Full
Jul 29
Last Quarter
Aug 6
New
Aug 14
First Quarter
Aug 20
Full

Hourly Weather History & Observations

Time (PDT) Temp. Dew Point Humidity Pressure Visibility Wind Dir Wind Speed Gust Speed Precip Events Conditions
12:15 AM 73.4 °F 46.4 °F 38% 29.83 in 10.0 mi South 12.7 mph 18.4 mph N/A   Clear
12:35 AM 71.6 °F 46.4 °F 41% 29.84 in 10.0 mi SSE 11.5 mph - N/A   Clear
12:55 AM 71.6 °F 46.4 °F 41% 29.84 in 10.0 mi SSE 11.5 mph - N/A   Clear
1:15 AM 69.8 °F 48.2 °F 46% 29.85 in 10.0 mi SSE 12.7 mph - N/A   Clear
1:35 AM 69.8 °F 48.2 °F 46% 29.85 in 10.0 mi SSE 12.7 mph - N/A   Clear
1:55 AM 68.0 °F 50.0 °F 52% 29.85 in 10.0 mi SSE 12.7 mph 17.3 mph N/A   Clear
2:15 AM 68.0 °F 50.0 °F 52% 29.85 in 10.0 mi SSE 11.5 mph - N/A   Clear
2:35 AM 68.0 °F 51.8 °F 56% 29.85 in 10.0 mi SSE 11.5 mph - N/A   Clear
2:55 AM 68.0 °F 53.6 °F 60% 29.86 in 10.0 mi SSE 12.7 mph - N/A   Clear
3:15 AM 66.2 °F 53.6 °F 64% 29.86 in 10.0 mi SSE 12.7 mph - N/A   Clear
3:35 AM 68.0 °F 53.6 °F 60% 29.85 in 10.0 mi SSE 12.7 mph - N/A   Clear
3:55 AM 68.0 °F 53.6 °F 60% 29.85 in 10.0 mi SSE 9.2 mph - N/A   Clear
4:15 AM 68.0 °F 53.6 °F 60% 29.85 in 10.0 mi SSE 10.4 mph - N/A   Clear
4:35 AM 68.0 °F 53.6 °F 60% 29.85 in 10.0 mi SSE 9.2 mph - N/A   Clear
4:55 AM 66.2 °F 53.6 °F 64% 29.85 in 10.0 mi SE 8.1 mph - N/A   Clear
5:15 AM 66.2 °F 53.6 °F 64% 29.86 in 10.0 mi SSE 9.2 mph - N/A   Clear
5:35 AM 66.2 °F 53.6 °F 64% 29.86 in 10.0 mi SE 9.2 mph - N/A   Clear
5:55 AM 66.2 °F 53.6 °F 64% 29.87 in 10.0 mi South 8.1 mph - N/A   Clear
6:15 AM 66.2 °F 53.6 °F 64% 29.88 in 10.0 mi SSE 10.4 mph - N/A   Clear
6:35 AM 66.2 °F 53.6 °F 64% 29.89 in 10.0 mi South 8.1 mph - N/A   Clear
6:55 AM 66.2 °F 53.6 °F 64% 29.89 in 10.0 mi SSE 6.9 mph - N/A   Clear
7:15 AM 68.0 °F 53.6 °F 60% 29.90 in 10.0 mi SSE 8.1 mph - N/A   Clear
7:35 AM 68.0 °F 53.6 °F 60% 29.91 in 10.0 mi SSE 8.1 mph - N/A   Clear
7:55 AM 71.6 °F 51.8 °F 50% 29.91 in 10.0 mi South 5.8 mph - N/A   Clear
8:15 AM 73.4 °F 51.8 °F 47% 29.93 in 10.0 mi South 8.1 mph - N/A   Clear
8:35 AM 73.4 °F 50.0 °F 44% 29.93 in 10.0 mi South 8.1 mph - N/A   Clear
8:55 AM 75.2 °F 50.0 °F 41% 29.93 in 10.0 mi SSW 6.9 mph - N/A   Clear
9:15 AM 77.0 °F 50.0 °F 39% 29.93 in 10.0 mi SSW 9.2 mph - N/A   Clear
9:35 AM 78.8 °F 50.0 °F 36% 29.92 in 10.0 mi WSW 6.9 mph - N/A   Clear
9:55 AM 80.6 °F 46.4 °F 30% 29.92 in 10.0 mi SSW 9.2 mph - N/A   Clear
10:15 AM 80.6 °F 46.4 °F 30% 29.92 in 10.0 mi WSW 5.8 mph - N/A   Clear
10:35 AM 80.6 °F 48.2 °F 32% 29.92 in 10.0 mi Calm Calm - N/A   Clear
10:55 AM 84.2 °F 50.0 °F 30% 29.92 in 10.0 mi WSW 4.6 mph - N/A   Clear
11:15 AM 84.2 °F 48.2 °F 29% 29.92 in 10.0 mi SW 5.8 mph - N/A   Clear
11:35 AM 84.2 °F 48.2 °F 29% 29.92 in 10.0 mi SW 4.6 mph - N/A   Clear
11:55 AM 86.0 °F 48.2 °F 27% 29.91 in 9.0 mi West 5.8 mph - N/A   Clear
12:15 PM 86.0 °F 44.6 °F 23% 29.91 in 10.0 mi West 4.6 mph - N/A   Clear
12:35 PM 86.0 °F 44.6 °F 23% 29.91 in 10.0 mi Calm Calm - N/A   Partly Cloudy
12:55 PM 87.8 °F 46.4 °F 24% 29.90 in 9.0 mi WSW 3.5 mph - N/A   Clear
1:15 PM 86.0 °F 46.4 °F 25% 29.90 in 10.0 mi SW 3.5 mph - N/A   Clear
1:35 PM 89.6 °F 46.4 °F 22% 29.89 in 10.0 mi SW 3.5 mph - N/A   Clear
1:55 PM 89.6 °F 46.4 °F 22% 29.89 in 10.0 mi Calm Calm - N/A   Partly Cloudy
2:15 PM 91.4 °F 46.4 °F 21% 29.89 in 10.0 mi Calm Calm - N/A   Clear
2:35 PM 91.4 °F 46.4 °F 21% 29.88 in 10.0 mi West 5.8 mph - N/A   Clear
2:55 PM 91.4 °F 46.4 °F 21% 29.87 in 10.0 mi WSW 8.1 mph - N/A   Clear
3:15 PM 91.4 °F 46.4 °F 21% 29.87 in 10.0 mi WSW 4.6 mph - N/A   Clear
3:35 PM 91.4 °F 46.4 °F 21% 29.87 in 10.0 mi SSW 5.8 mph - N/A   Clear
3:55 PM 91.4 °F 46.4 °F 21% 29.87 in 10.0 mi SSW 8.1 mph - N/A   Clear
4:15 PM 91.4 °F 44.6 °F 20% 29.86 in 10.0 mi SSW 9.2 mph - N/A   Clear
4:35 PM 89.6 °F 39.2 °F 17% 29.86 in 10.0 mi South 9.2 mph - N/A   Clear
4:55 PM 91.4 °F 35.6 °F 14% 29.86 in 10.0 mi South 15.0 mph - N/A   Clear
5:15 PM 91.4 °F 32.0 °F 12% 29.86 in 10.0 mi South 15.0 mph - N/A   Clear
5:35 PM 89.6 °F 41.0 °F 18% 29.87 in 10.0 mi South 16.1 mph 21.9 mph N/A   Clear
5:55 PM 86.0 °F 46.4 °F 25% 29.88 in 10.0 mi South 16.1 mph - N/A   Clear
6:15 PM 84.2 °F 48.2 °F 29% 29.88 in 10.0 mi SSW 13.8 mph 21.9 mph N/A   Clear
6:35 PM 82.4 °F 44.6 °F 26% 29.87 in 10.0 mi SSW 21.9 mph 25.3 mph N/A   Unknown
6:55 PM 82.4 °F 37.4 °F 20% 29.86 in 10.0 mi SW 15.0 mph - N/A   Unknown
7:15 PM 82.4 °F 39.2 °F 21% 29.87 in 10.0 mi SW 11.5 mph 19.6 mph N/A   Clear
7:35 PM 80.6 °F 42.8 °F 26% 29.88 in 10.0 mi South 11.5 mph 19.6 mph N/A   Clear
7:55 PM 78.8 °F 46.4 °F 32% 29.89 in 10.0 mi South 11.5 mph - N/A   Clear
8:15 PM 78.8 °F 46.4 °F 32% 29.88 in 10.0 mi SSW 11.5 mph 17.3 mph N/A   Clear
8:35 PM 78.8 °F 39.2 °F 24% 29.91 in 10.0 mi SSE 12.7 mph - N/A   Clear
8:55 PM 78.8 °F 37.4 °F 23% 29.92 in 10.0 mi SSE 12.7 mph - N/A   Clear
9:15 PM 77.0 °F 41.0 °F 28% 29.93 in 10.0 mi SSE 13.8 mph 18.4 mph N/A   Clear
9:35 PM 77.0 °F 44.6 °F 32% 29.93 in 10.0 mi South 13.8 mph - N/A   Clear
9:55 PM 75.2 °F 44.6 °F 34% 29.93 in 10.0 mi South 13.8 mph 19.6 mph N/A   Clear
10:15 PM 73.4 °F 46.4 °F 38% 29.94 in 10.0 mi South 10.4 mph - N/A   Clear
10:35 PM 73.4 °F 46.4 °F 38% 29.94 in 10.0 mi SSE 5.8 mph - N/A   Clear
10:55 PM 73.4 °F 46.4 °F 38% 29.93 in 10.0 mi SSE 4.6 mph - N/A   Clear
11:15 PM 71.6 °F 48.2 °F 43% 29.93 in 10.0 mi ESE 6.9 mph - N/A   Clear
11:35 PM 73.4 °F 48.2 °F 41% 29.92 in 10.0 mi East 6.9 mph - N/A   Clear
11:55 PM 73.4 °F 48.2 °F 41% 29.93 in 10.0 mi ESE 10.4 mph - N/A   Clear